| time (UTC) | temp F | wind direction | speed knots | gust knots | rain 1hr in | rain 24hr in | rain mn in | humidity % | barometer mb |
| 20260509230718 | 80 | 52 | 20.0 | 0.0 | 0.00 | 1.57 | 0.00 | 66 | 1009.3 |
| 20260509230013 | 80 | 74 | 7.8 | 0.0 | 0.00 | 1.57 | 0.00 | 66 | 1009.3 |
| 20260509225517 | 80 | 72 | 3.5 | 0.0 | 0.00 | 1.57 | 0.00 | 67 | 1009.6 |
| 20260509225020 | 80 | 38 | 3.5 | 0.0 | 0.00 | 1.57 | 0.00 | 66 | 1009.3 |
| 20260509224523 | 80 | 80 | 3.5 | 0.0 | 0.00 | 1.57 | 0.00 | 66 | 1008.9 |
| 20260509224025 | 80 | 76 | 20.0 | 0.0 | 0.00 | 1.57 | 0.00 | 67 | 1009.3 |
| 20260509223525 | 80 | 92 | 11.3 | 0.0 | 0.00 | 1.57 | 0.00 | 68 | 1009.3 |
| 20260509223213 | 80 | 86 | 11.3 | 0.0 | 0.00 | 1.57 | 0.00 | 68 | 1009.3 |
| 20260509222507 | 80 | 38 | 3.5 | 0.0 | 0.00 | 1.57 | 0.00 | 68 | 1009.3 |
| 20260509222008 | 80 | 38 | 11.3 | 0.0 | 0.00 | 1.57 | 0.00 | 68 | 1009.3 |
| 20260509221514 | 81 | 57 | 23.5 | 0.0 | 0.00 | 1.57 | 0.00 | 67 | 1009.6 |
| 20260509221016 | 82 | 80 | 3.5 | 0.0 | 0.00 | 1.57 | 0.00 | 65 | 1009.3 |
| 20260509220519 | 82 | 94 | 3.5 | 0.0 | 0.00 | 1.57 | 0.00 | 64 | 1009.3 |
| 20260509220022 | 82 | 312 | 3.5 | 0.0 | 0.00 | 1.57 | 0.00 | 65 | 1009.6 |
| 20260509215522 | 82 | 46 | 3.5 | 0.0 | 0.00 | 1.57 | 0.00 | 64 | 1009.3 |
| 20260509215223 | 82 | 66 | 3.5 | 0.0 | 0.00 | 1.57 | 0.00 | 65 | 1009.6 |
| 20260509214526 | 82 | 79 | 7.8 | 0.0 | 0.00 | 1.57 | 0.00 | 64 | 1009.3 |
| 20260509214008 | 82 | 59 | 0.0 | 0.0 | 0.00 | 1.57 | 0.00 | 65 | 1009.3 |
| 20260509213718 | 82 | 87 | 0.0 | 0.0 | 0.00 | 1.57 | 0.00 | 65 | 1009.3 |
| 20260509213014 | 83 | 49 | 7.8 | 0.0 | 0.00 | 1.57 | 0.00 | 64 | 1009.3 |
| 20260509212516 | 83 | 342 | 0.0 | 0.0 | 0.00 | 1.57 | 0.00 | 63 | 1009.3 |
| 20260509212020 | 83 | 62 | 0.0 | 0.0 | 0.00 | 1.57 | 0.00 | 62 | 1009.6 |
| 20260509211522 | 83 | 66 | 3.5 | 0.0 | 0.00 | 1.57 | 0.00 | 61 | 1009.6 |
| 20260509211025 | 83 | 37 | 3.5 | 0.0 | 0.00 | 1.57 | 0.00 | 61 | 1009.6 |
| 20260509210525 | 83 | 11 | 3.5 | 0.0 | 0.00 | 1.57 | 0.00 | 63 | 1009.6 |
| 20260509210005 | 83 | 268 | 3.5 | 0.0 | 0.00 | 1.57 | 0.00 | 62 | 1009.6 |
| 20260509205507 | 83 | 52 | 3.5 | 0.0 | 0.00 | 1.57 | 0.00 | 61 | 1009.6 |
| 20260509205010 | 84 | 308 | 3.5 | 0.0 | 0.00 | 1.57 | 0.00 | 61 | 1009.6 |
| 20260509204513 | 84 | 51 | 3.5 | 0.0 | 0.00 | 1.57 | 0.00 | 62 | 1009.9 |
| 20260509204016 | 84 | 103 | 0.0 | 0.0 | 0.00 | 1.57 | 0.00 | 60 | 1009.9 |
| 20260509203519 | 84 | 92 | 0.0 | 0.0 | 0.00 | 1.57 | 0.00 | 60 | 1010.3 |
| 20260509203022 | 85 | 335 | 7.8 | 0.0 | 0.00 | 1.57 | 0.00 | 58 | 1009.9 |
| 20260509202525 | 85 | 24 | 7.8 | 0.0 | 0.00 | 1.57 | 0.00 | 61 | 1010.3 |
| 20260509202025 | 86 | 120 | 0.0 | 0.0 | 0.00 | 1.57 | 0.00 | 57 | 1009.9 |
| 20260509201525 | 85 | 108 | 0.0 | 0.0 | 0.00 | 1.57 | 0.00 | 57 | 1009.9 |
| 20260509201007 | 85 | 123 | 0.0 | 0.0 | 0.00 | 1.57 | 0.00 | 58 | 1009.9 |
| 20260509200510 | 84 | 104 | 0.0 | 0.0 | 0.00 | 1.57 | 0.00 | 58 | 1009.9 |
| 20260509200013 | 86 | 43 | 0.0 | 0.0 | 0.00 | 1.57 | 0.00 | 57 | 1009.9 |
| 20260509195516 | 86 | 54 | 3.5 | 0.0 | 0.00 | 1.57 | 0.00 | 60 | 1010.3 |
| 20260509195019 | 86 | 23 | 3.5 | 0.0 | 0.00 | 1.57 | 0.00 | 54 | 1010.3 |
| 20260509194522 | 86 | 173 | 0.0 | 0.0 | 0.00 | 1.57 | 0.00 | 55 | 1010.3 |
| 20260509194025 | 86 | 92 | 0.0 | 0.0 | 0.00 | 1.57 | 0.00 | 56 | 1010.3 |
| 20260509193733 | 86 | 161 | 7.8 | 0.0 | 0.00 | 1.57 | 0.00 | 54 | 1010.3 |
| 20260509193005 | 84 | 313 | 7.8 | 0.0 | 0.00 | 1.57 | 0.00 | 58 | 1010.6 |
| 20260509192715 | 83 | 83 | 0.0 | 0.0 | 0.00 | 1.57 | 0.00 | 58 | 1010.6 |
| 20260509192010 | 83 | 41 | 3.5 | 0.0 | 0.00 | 1.57 | 0.00 | 58 | 1010.6 |
| 20260509191513 | 83 | 75 | 0.0 | 0.0 | 0.00 | 1.57 | 0.00 | 60 | 1011.0 |
| 20260509191016 | 84 | 19 | 11.3 | 0.0 | 0.00 | 1.57 | 0.00 | 59 | 1010.6 |
| 20260509190519 | 84 | 109 | 0.0 | 0.0 | 0.00 | 1.57 | 0.00 | 58 | 1011.0 |
| 20260509190230 | 84 | 176 | 3.5 | 0.0 | 0.00 | 1.57 | 0.00 | 57 | 1011.0 |
| 20260509185525 | 84 | 51 | 3.5 | 0.0 | 0.00 | 1.57 | 0.00 | 57 | 1011.0 |
| 20260509185025 | 85 | 144 | 7.8 | 0.0 | 0.00 | 1.57 | 0.00 | 56 | 1011.0 |
| 20260509184525 | 85 | 126 | 0.0 | 0.0 | 0.00 | 1.57 | 0.00 | 54 | 1011.0 |
| 20260509184007 | 84 | 149 | 0.0 | 0.0 | 0.00 | 1.57 | 0.00 | 58 | 1011.0 |
| 20260509183717 | 84 | 89 | 3.5 | 0.0 | 0.00 | 1.57 | 0.00 | 60 | 1011.0 |
| 20260509183013 | 83 | 176 | 3.5 | 0.0 | 0.00 | 1.57 | 0.00 | 57 | 1011.3 |
| 20260509182516 | 83 | 132 | 0.0 | 0.0 | 0.00 | 1.57 | 0.00 | 63 | 1011.0 |
| 20260509182019 | 82 | 61 | 0.0 | 0.0 | 0.00 | 1.57 | 0.00 | 62 | 1011.3 |
| 20260509181727 | 83 | 90 | 3.5 | 0.0 | 0.00 | 1.57 | 0.00 | 61 | 1011.3 |
| 20260509181025 | 83 | 46 | 3.5 | 0.0 | 0.00 | 1.57 | 0.00 | 63 | 1011.3 |
| 20260509180525 | 82 | 123 | 0.0 | 0.0 | 0.00 | 1.57 | 0.00 | 62 | 1011.6 |
| 20260509180005 | 81 | 50 | 0.0 | 0.0 | 0.00 | 1.57 | 0.00 | 64 | 1011.3 |
| 20260509175507 | 81 | 50 | 3.5 | 0.0 | 0.00 | 1.57 | 0.00 | 65 | 1011.3 |
| 20260509175010 | 81 | 75 | 7.8 | 0.0 | 0.00 | 1.57 | 0.00 | 62 | 1011.3 |
| 20260509174513 | 80 | 39 | 0.0 | 0.0 | 0.00 | 1.57 | 0.00 | 68 | 1011.3 |
| 20260509174016 | 80 | 97 | 3.5 | 0.0 | 0.00 | 1.57 | 0.00 | 66 | 1011.3 |
| 20260509173520 | 80 | 63 | 0.0 | 0.0 | 0.00 | 1.57 | 0.00 | 68 | 1011.3 |
| 20260509173022 | 80 | 58 | 0.0 | 0.0 | 0.00 | 1.57 | 0.00 | 66 | 1011.6 |
| 20260509172525 | 80 | 92 | 3.5 | 0.0 | 0.00 | 1.57 | 0.00 | 67 | 1011.6 |
| 20260509172025 | 81 | 93 | 11.3 | 0.0 | 0.00 | 1.57 | 0.00 | 66 | 1011.6 |
| 20260509171733 | 81 | 78 | 11.3 | 0.0 | 0.00 | 1.57 | 0.00 | 65 | 1011.3 |
| 20260509171007 | 80 | 160 | 7.8 | 0.0 | 0.00 | 1.57 | 0.00 | 67 | 1011.6 |
| 20260509170510 | 80 | 47 | 7.8 | 0.0 | 0.00 | 1.57 | 0.00 | 67 | 1011.6 |
| 20260509170013 | 80 | 59 | 11.3 | 0.0 | 0.00 | 1.57 | 0.00 | 66 | 1011.6 |
| 20260509165516 | 80 | 6 | 7.8 | 0.0 | 0.00 | 1.57 | 0.00 | 69 | 1011.3 |
| 20260509165019 | 79 | 23 | 11.3 | 0.0 | 0.00 | 1.57 | 0.00 | 71 | 1011.3 |
| 20260509164522 | 79 | 122 | 11.3 | 0.0 | 0.00 | 1.57 | 0.00 | 69 | 1011.3 |
| 20260509164009 | 78 | 87 | 7.8 | 0.0 | 0.00 | 1.57 | 0.00 | 72 | 1011.6 |
| 20260509163525 | 78 | 76 | 20.0 | 0.0 | 0.00 | 1.57 | 0.00 | 70 | 1011.6 |
| 20260509163005 | 79 | 47 | 3.5 | 0.0 | 0.00 | 1.57 | 0.00 | 72 | 1011.3 |
| 20260509162505 | 77 | 98 | 7.8 | 0.0 | 0.00 | 1.57 | 0.00 | 75 | 1012.0 |
| 20260509162005 | 77 | 106 | 20.0 | 0.0 | 0.00 | 1.57 | 0.00 | 74 | 1011.6 |
| 20260509161505 | 76 | 61 | 0.0 | 0.0 | 0.00 | 1.57 | 0.00 | 80 | 1011.6 |
| 20260509161005 | 74 | 70 | 11.3 | 0.0 | 0.00 | 1.57 | 0.00 | 90 | 1012.0 |
| 20260509160712 | 72 | 46 | 11.3 | 0.0 | 0.00 | 1.57 | 0.00 | 95 | 1012.0 |
| 20260509160005 | 72 | 58 | 11.3 | 0.0 | 0.00 | 1.57 | 0.00 | 95 | 1012.0 |
| 20260509155505 | 71 | 123 | 7.8 | 0.0 | 0.00 | 1.57 | 0.00 | 95 | 1012.0 |
| 20260509155005 | 72 | 114 | 7.8 | 0.0 | 0.00 | 1.57 | 0.00 | 95 | 1012.0 |
| 20260509154505 | 71 | 35 | 7.8 | 0.0 | 0.00 | 1.57 | 0.00 | 95 | 1011.6 |
| 20260509154005 | 71 | 74 | 0.0 | 0.0 | 0.00 | 1.57 | 0.00 | 95 | 1012.0 |
| 20260509153505 | 71 | 97 | 3.5 | 0.0 | 0.00 | 1.57 | 0.00 | 95 | 1012.3 |
| 20260509153005 | 70 | 357 | 3.5 | 0.0 | 0.00 | 1.57 | 0.00 | 95 | 1012.3 |
| 20260509152711 | 70 | 54 | 7.8 | 0.0 | 0.00 | 1.57 | 0.00 | 95 | 1012.7 |
| 20260509152005 | 70 | 96 | 3.5 | 0.0 | 0.00 | 1.57 | 0.00 | 95 | 1012.7 |
| 20260509151505 | 71 | 55 | 7.8 | 0.0 | 0.00 | 1.57 | 0.00 | 95 | 1012.7 |
| 20260509151005 | 70 | 35 | 11.3 | 0.0 | 0.00 | 1.57 | 0.00 | 95 | 1012.7 |
| 20260509150505 | 70 | 115 | 11.3 | 0.0 | 0.00 | 1.57 | 0.00 | 95 | 1013.0 |
| 20260509150212 | 70 | 114 | 3.5 | 0.0 | 0.07 | 1.57 | 0.00 | 95 | 1012.7 |
| 20260509145505 | 70 | 25 | 3.5 | 0.0 | 0.19 | 1.57 | 0.00 | 95 | 1012.7 |
| 20260509145005 | 69 | 71 | 0.0 | 0.0 | 0.24 | 1.56 | 0.00 | 95 | 1013.3 |
| 20260509144505 | 69 | 114 | 3.5 | 0.0 | 0.54 | 1.54 | 0.00 | 95 | 1013.0 |
| 20260509144005 | 69 | 50 | 3.5 | 0.0 | 0.90 | 1.51 | 0.00 | 95 | 1013.3 |
| 20260509143505 | 68 | 65 | 0.0 | 0.0 | 1.91 | 1.44 | 0.00 | 95 | 1013.3 |
| 20260509143005 | 69 | 69 | 11.3 | 0.0 | 4.07 | 1.34 | 0.00 | 95 | 1014.0 |
| 20260509142505 | 69 | 321 | 3.5 | 0.0 | 3.95 | 1.02 | 0.00 | 93 | 1014.4 |
| 20260509142212 | 70 | 66 | 7.8 | 0.0 | 1.37 | 0.58 | 0.00 | 92 | 1015.4 |
| 20260509141505 | 71 | 253 | 27.8 | 0.0 | 0.00 | 0.35 | 0.00 | 92 | 1014.7 |
| 20260509141212 | 71 | 214 | 11.3 | 0.0 | 0.07 | 0.35 | 0.00 | 92 | 1014.0 |
| 20260509140505 | 71 | 214 | 11.3 | 0.0 | 0.07 | 0.35 | 0.00 | 92 | 1012.3 |
| 20260509140006 | 71 | 33 | 7.8 | 0.0 | 0.00 | 0.34 | 0.00 | 93 | 1011.6 |
| 20260509135505 | 71 | 80 | 7.8 | 0.0 | 0.00 | 0.34 | 0.00 | 93 | 1011.3 |
| 20260509135212 | 71 | 81 | 7.8 | 0.0 | 0.05 | 0.34 | 0.00 | 92 | 1011.3 |
| 20260509134505 | 71 | 8 | 7.8 | 0.0 | 0.05 | 0.34 | 0.00 | 92 | 1011.6 |
| 20260509134005 | 71 | 1 | 11.3 | 0.0 | 0.00 | 0.33 | 0.00 | 92 | 1012.0 |
| 20260509133505 | 71 | 13 | 11.3 | 0.0 | 0.00 | 0.33 | 0.00 | 92 | 1011.6 |
| 20260509133212 | 71 | 68 | 7.8 | 0.0 | 0.00 | 0.33 | 0.00 | 92 | 1012.0 |
| 20260509132505 | 71 | 15 | 7.8 | 0.0 | 0.00 | 0.33 | 0.00 | 92 | 1011.6 |
| 20260509132005 | 71 | 81 | 3.5 | 0.0 | 0.00 | 0.33 | 0.00 | 92 | 1011.6 |
| 20260509131505 | 71 | 78 | 3.5 | 0.0 | 0.00 | 0.33 | 0.00 | 92 | 1012.0 |
| 20260509131005 | 71 | 71 | 7.8 | 0.0 | 0.00 | 0.33 | 0.00 | 93 | 1012.0 |
| 20260509130505 | 71 | 152 | 3.5 | 0.0 | 0.00 | 0.33 | 0.00 | 93 | 1012.0 |
| 20260509130005 | 71 | 5 | 3.5 | 0.0 | 0.00 | 0.33 | 0.00 | 94 | 1012.0 |
| 20260509125505 | 71 | 297 | 11.3 | 0.0 | 0.00 | 0.33 | 0.00 | 94 | 1012.0 |
| 20260509125005 | 71 | 13 | 3.5 | 0.0 | 0.00 | 0.33 | 0.00 | 94 | 1012.0 |
| 20260509124505 | 71 | 72 | 0.0 | 0.0 | 0.00 | 0.33 | 0.00 | 94 | 1011.6 |
| 20260509124005 | 71 | 194 | 11.3 | 0.0 | 0.00 | 0.33 | 0.00 | 95 | 1011.6 |
| 20260509123504 | 71 | 34 | 15.6 | 0.0 | 0.00 | 0.33 | 0.00 | 95 | 1011.3 |
| 20260509123005 | 71 | 337 | 11.3 | 0.0 | 0.00 | 0.33 | 0.00 | 95 | 1011.6 |
| 20260509122505 | 71 | 102 | 11.3 | 0.0 | 0.00 | 0.33 | 0.00 | 95 | 1011.6 |
| 20260509122005 | 71 | 42 | 11.3 | 0.0 | 0.00 | 0.33 | 0.00 | 95 | 1011.6 |
| 20260509121505 | 71 | 319 | 23.5 | 0.0 | 0.00 | 0.33 | 0.00 | 95 | 1011.3 |
| 20260509121005 | 71 | 40 | 20.0 | 0.0 | 0.00 | 0.33 | 0.00 | 95 | 1011.3 |
| 20260509120505 | 72 | 19 | 7.8 | 0.0 | 0.00 | 0.33 | 0.00 | 95 | 1011.6 |
| 20260509120213 | 71 | 8 | 7.8 | 0.0 | 0.00 | 0.33 | 0.00 | 95 | 1011.3 |
| 20260509115712 | 71 | 50 | 3.5 | 0.0 | 0.00 | 0.33 | 0.00 | 95 | 1011.3 |
| 20260509115005 | 72 | 150 | 7.8 | 0.0 | 0.07 | 0.33 | 0.00 | 94 | 1011.0 |
| 20260509114505 | 73 | 14 | 7.8 | 0.0 | 0.28 | 0.32 | 0.00 | 94 | 1010.6 |
| 20260509114005 | 73 | 338 | 3.5 | 0.0 | 0.90 | 0.32 | 0.00 | 94 | 1011.0 |
| 20260509113505 | 73 | 101 | 0.0 | 0.0 | 1.21 | 0.27 | 0.00 | 94 | 1011.0 |
| 20260509113005 | 74 | 209 | 15.6 | 0.0 | 0.66 | 0.15 | 0.00 | 93 | 1011.3 |
| 20260509112504 | 74 | 131 | 0.0 | 0.0 | 0.19 | 0.06 | 0.00 | 93 | 1011.3 |
| 20260509112005 | 74 | 190 | 7.8 | 0.0 | 0.17 | 0.04 | 0.00 | 92 | 1011.0 |
| 20260509111505 | 74 | 230 | 0.0 | 0.0 | 0.12 | 0.02 | 0.00 | 92 | 1011.3 |
| 20260509111005 | 74 | 64 | 0.0 | 0.0 | 0.07 | 0.01 | 0.00 | 92 | 1011.0 |
| 20260509110505 | 74 | 3 | 3.5 | 0.0 | 0.00 | 0.00 | 0.00 | 92 | 1010.6 |
| 20260509110213 | 74 | 325 | 11.3 | 0.0 | 0.00 | 0.00 | 0.00 | 92 | 1010.6 |
| 20260509105505 | 74 | 45 | 11.3 | 0.0 | 0.00 | 0.00 | 0.00 | 93 | 1010.6 |
| 20260509105005 | 74 | 334 | 3.5 | 0.0 | 0.00 | 0.00 | 0.00 | 93 | 1010.6 |
| 20260509104505 | 74 | 32 | 3.5 | 0.0 | 0.00 | 0.00 | 0.00 | 93 | 1010.6 |
| 20260509104005 | 74 | 17 | 7.8 | 0.0 | 0.00 | 0.00 | 0.00 | 93 | 1010.3 |
| 20260509103505 | 74 | 60 | 3.5 | 0.0 | 0.00 | 0.00 | 0.00 | 94 | 1009.9 |
| 20260509103005 | 74 | 61 | 3.5 | 0.0 | 0.00 | 0.00 | 0.00 | 94 | 1009.6 |
| 20260509102504 | 74 | 205 | 7.8 | 0.0 | 0.00 | 0.00 | 0.00 | 94 | 1009.6 |
| 20260509102005 | 74 | 108 | 0.0 | 0.0 | 0.00 | 0.00 | 0.00 | 94 | 1009.6 |
| 20260509101505 | 74 | 22 | 0.0 | 0.0 | 0.00 | 0.00 | 0.00 | 94 | 1009.3 |
| 20260509101005 | 74 | 76 | 0.0 | 0.0 | 0.00 | 0.00 | 0.00 | 95 | 1008.9 |
| 20260509100505 | 74 | 129 | 0.0 | 0.0 | 0.00 | 0.00 | 0.00 | 95 | 1009.3 |
| 20260509100006 | 73 | 260 | 3.5 | 0.0 | 0.00 | 0.00 | 0.00 | 95 | 1008.9 |
| 20260509095711 | 73 | 103 | 3.5 | 0.0 | 0.00 | 0.00 | 0.00 | 95 | 1008.6 |
| 20260509095005 | 73 | 28 | 0.0 | 0.0 | 0.00 | 0.00 | 0.00 | 95 | 1008.6 |
| 20260509094505 | 73 | 339 | 3.5 | 0.0 | 0.00 | 0.00 | 0.00 | 94 | 1008.6 |
| 20260509094212 | 73 | 102 | 0.0 | 0.0 | 0.00 | 0.00 | 0.00 | 94 | 1008.6 |
| 20260509093505 | 73 | 101 | 0.0 | 0.0 | 0.00 | 0.00 | 0.00 | 94 | 1008.6 |
| 20260509093004 | 73 | 76 | 0.0 | 0.0 | 0.00 | 0.00 | 0.00 | 94 | 1008.6 |
| 20260509092505 | 73 | 83 | 0.0 | 0.0 | 0.00 | 0.00 | 0.00 | 94 | 1008.9 |
| 20260509092005 | 73 | 104 | 0.0 | 0.0 | 0.00 | 0.00 | 0.00 | 94 | 1008.9 |
| 20260509091505 | 73 | 17 | 0.0 | 0.0 | 0.00 | 0.00 | 0.00 | 94 | 1008.9 |
| 20260509091212 | 73 | 83 | 0.0 | 0.0 | 0.00 | 0.00 | 0.00 | 94 | 1008.6 |
| 20260509090505 | 73 | 111 | 0.0 | 0.0 | 0.00 | 0.00 | 0.00 | 94 | 1008.9 |
| 20260509090005 | 73 | 82 | 3.5 | 0.0 | 0.00 | 0.00 | 0.00 | 94 | 1008.6 |
| 20260509085711 | 73 | 71 | 7.8 | 0.0 | 0.00 | 0.00 | 0.00 | 94 | 1008.6 |
| 20260509085005 | 73 | 83 | 0.0 | 0.0 | 0.00 | 0.00 | 0.00 | 93 | 1008.9 |
| 20260509084505 | 73 | 100 | 0.0 | 0.0 | 0.00 | 0.00 | 0.00 | 93 | 1008.6 |
| 20260509084005 | 73 | 112 | 0.0 | 0.0 | 0.00 | 0.00 | 0.00 | 93 | 1008.9 |
| 20260509083713 | 74 | 100 | 0.0 | 0.0 | 0.00 | 0.00 | 0.00 | 93 | 1008.6 |
| 20260509083005 | 74 | 92 | 0.0 | 0.0 | 0.00 | 0.00 | 0.00 | 93 | 1008.2 |
| 20260509082505 | 74 | 136 | 0.0 | 0.0 | 0.00 | 0.00 | 0.00 | 93 | 1008.6 |
| 20260509082005 | 74 | 127 | 0.0 | 0.0 | 0.00 | 0.00 | 0.00 | 93 | 1008.2 |
| 20260509081505 | 74 | 125 | 0.0 | 0.0 | 0.00 | 0.00 | 0.00 | 93 | 1007.9 |
| 20260509081005 | 74 | 104 | 11.3 | 0.0 | 0.00 | 0.00 | 0.00 | 93 | 1007.9 |
| 20260509080505 | 74 | 82 | 3.5 | 0.0 | 0.00 | 0.00 | 0.00 | 93 | 1008.2 |
| 20260509080005 | 74 | 80 | 0.0 | 0.0 | 0.00 | 0.00 | 0.00 | 93 | 1008.6 |
| 20260509075505 | 74 | 101 | 0.0 | 0.0 | 0.00 | 0.00 | 0.00 | 92 | 1008.9 |
| 20260509075214 | 74 | 121 | 0.0 | 0.0 | 0.00 | 0.00 | 0.00 | 92 | 1009.3 |
| 20260509074505 | 74 | 115 | 0.0 | 0.0 | 0.00 | 0.00 | 0.00 | 92 | 1009.3 |
| 20260509074005 | 74 | 64 | 0.0 | 0.0 | 0.00 | 0.00 | 0.00 | 92 | 1009.3 |
| 20260509073505 | 74 | 109 | 0.0 | 0.0 | 0.00 | 0.00 | 0.00 | 92 | 1009.6 |
| 20260509073005 | 74 | 126 | 3.5 | 0.0 | 0.00 | 0.00 | 0.00 | 92 | 1009.6 |
| 20260509072505 | 74 | 127 | 0.0 | 0.0 | 0.00 | 0.00 | 0.00 | 92 | 1009.6 |
| 20260509072005 | 74 | 112 | 0.0 | 0.0 | 0.00 | 0.00 | 0.00 | 92 | 1009.3 |
| 20260509071505 | 74 | 107 | 0.0 | 0.0 | 0.00 | 0.00 | 0.00 | 92 | 1009.6 |
| 20260509071005 | 74 | 121 | 0.0 | 0.0 | 0.00 | 0.00 | 0.00 | 92 | 1009.6 |
| 20260509070505 | 74 | 101 | 0.0 | 0.0 | 0.00 | 0.00 | 0.00 | 92 | 1009.3 |
| 20260509070005 | 74 | 129 | 0.0 | 0.0 | 0.00 | 0.00 | 0.00 | 91 | 1009.6 |
| 20260509065505 | 74 | 42 | 3.5 | 0.0 | 0.00 | 0.00 | 0.00 | 91 | 1009.6 |
| 20260509065005 | 74 | 110 | 0.0 | 0.0 | 0.00 | 0.00 | 0.00 | 91 | 1009.9 |
| 20260509064712 | 74 | 142 | 0.0 | 0.0 | 0.00 | 0.00 | 0.00 | 91 | 1009.6 |
| 20260509064005 | 74 | 120 | 0.0 | 0.0 | 0.00 | 0.00 | 0.00 | 91 | 1009.9 |
| 20260509063505 | 74 | 99 | 0.0 | 0.0 | 0.00 | 0.00 | 0.00 | 91 | 1009.6 |
| 20260509063005 | 74 | 97 | 0.0 | 0.0 | 0.00 | 0.00 | 0.00 | 91 | 1009.3 |
| 20260509062505 | 74 | 64 | 3.5 | 0.0 | 0.00 | 0.00 | 0.00 | 91 | 1008.9 |
| 20260509062005 | 74 | 99 | 0.0 | 0.0 | 0.00 | 0.00 | 0.00 | 91 | 1009.3 |
| 20260509061505 | 74 | 97 | 0.0 | 0.0 | 0.00 | 0.00 | 0.00 | 91 | 1009.6 |
| 20260509061005 | 74 | 116 | 0.0 | 0.0 | 0.00 | 0.00 | 0.00 | 91 | 1009.6 |
| 20260509060505 | 74 | 83 | 0.0 | 0.0 | 0.00 | 0.00 | 0.00 | 90 | 1009.6 |
| 20260509060211 | 74 | 95 | 0.0 | 0.0 | 0.00 | 0.00 | 0.00 | 90 | 1009.9 |
| 20260509055505 | 74 | 62 | 3.5 | 0.0 | 0.00 | 0.15 | 0.00 | 90 | 1009.6 |
| 20260509055005 | 74 | 127 | 0.0 | 0.0 | 0.00 | 0.15 | 0.00 | 90 | 1009.6 |
| 20260509054712 | 74 | 87 | 0.0 | 0.0 | 0.00 | 0.15 | 0.00 | 90 | 1009.6 |
| 20260509054005 | 74 | 109 | 0.0 | 0.0 | 0.00 | 0.15 | 0.00 | 89 | 1009.6 |
| 20260509053712 | 74 | 76 | 3.5 | 0.0 | 0.00 | 0.15 | 0.00 | 89 | 1009.6 |
| 20260509053005 | 74 | 84 | 0.0 | 0.0 | 0.00 | 0.15 | 0.00 | 89 | 1009.9 |
| 20260509052505 | 74 | 79 | 7.8 | 0.0 | 0.00 | 0.15 | 0.00 | 89 | 1009.6 |
| 20260509052005 | 74 | 82 | 7.8 | 0.0 | 0.00 | 0.15 | 0.00 | 89 | 1009.6 |
| 20260509051505 | 75 | 89 | 3.5 | 0.0 | 0.00 | 0.15 | 0.00 | 89 | 1009.9 |
| 20260509051005 | 75 | 60 | 3.5 | 0.0 | 0.00 | 0.15 | 0.00 | 88 | 1010.6 |
| 20260509050505 | 75 | 182 | 11.3 | 0.0 | 0.00 | 0.15 | 0.00 | 88 | 1011.0 |
| 20260509045505 | 74 | 111 | 3.5 | 0.0 | 0.00 | 0.15 | 0.00 | 89 | 1010.3 |
| 20260509045004 | 74 | 157 | 3.5 | 0.0 | 0.00 | 0.15 | 0.00 | 89 | 1010.6 |
| 20260509044505 | 74 | 96 | 0.0 | 0.0 | 0.00 | 0.15 | 0.00 | 89 | 1010.6 |
| 20260509044005 | 74 | 172 | 3.5 | 0.0 | 0.00 | 0.15 | 0.00 | 88 | 1010.6 |
| 20260509043505 | 74 | 107 | 3.5 | 0.0 | 0.00 | 0.15 | 0.00 | 88 | 1010.6 |
| 20260509043005 | 74 | 165 | 3.5 | 0.0 | 0.00 | 0.15 | 0.00 | 88 | 1010.6 |
| 20260509042505 | 75 | 137 | 3.5 | 0.0 | 0.07 | 0.15 | 0.00 | 87 | 1010.6 |
| 20260509042212 | 75 | 96 | 0.0 | 0.0 | 0.07 | 0.15 | 0.00 | 86 | 1010.3 |
| 20260509041505 | 76 | 59 | 7.8 | 0.0 | 0.00 | 0.14 | 0.00 | 83 | 1009.9 |
| 20260509041005 | 76 | 79 | 3.5 | 0.0 | 0.00 | 0.14 | 0.00 | 81 | 1009.9 |
| 20260509040504 | 77 | 79 | 3.5 | 0.0 | 0.00 | 0.14 | 0.00 | 80 | 1009.9 |
| 20260509040005 | 77 | 88 | 3.5 | 0.0 | 0.00 | 0.14 | 0.00 | 80 | 1009.9 |
| 20260509035505 | 77 | 144 | 0.0 | 0.0 | 0.00 | 0.14 | 0.00 | 79 | 1009.9 |
| 20260509035005 | 77 | 111 | 3.5 | 0.0 | 0.00 | 0.14 | 0.00 | 79 | 1009.9 |
| 20260509034505 | 77 | 86 | 7.8 | 0.0 | 0.00 | 0.14 | 0.00 | 79 | 1009.9 |
| 20260509034005 | 77 | 115 | 3.5 | 0.0 | 0.00 | 0.14 | 0.00 | 79 | 1009.9 |
| 20260509033505 | 77 | 156 | 3.5 | 0.0 | 0.00 | 0.14 | 0.00 | 79 | 1009.6 |
| 20260509033004 | 77 | 80 | 0.0 | 0.0 | 0.00 | 0.14 | 0.00 | 79 | 1009.3 |
| 20260509032505 | 77 | 104 | 7.8 | 0.0 | 0.00 | 0.14 | 0.00 | 78 | 1008.9 |
| 20260509032005 | 77 | 75 | 0.0 | 0.0 | 0.00 | 0.14 | 0.00 | 78 | 1009.3 |
| 20260509031505 | 77 | 56 | 7.8 | 0.0 | 0.00 | 0.14 | 0.00 | 79 | 1009.3 |
| 20260509031005 | 77 | 90 | 3.5 | 0.0 | 0.00 | 0.14 | 0.00 | 80 | 1008.9 |
| 20260509030505 | 77 | 87 | 3.5 | 0.0 | 0.00 | 0.14 | 0.00 | 79 | 1009.3 |
| 20260509030005 | 77 | 109 | 15.6 | 0.0 | 0.00 | 0.14 | 0.00 | 79 | 1008.9 |
| 20260509025505 | 77 | 75 | 7.8 | 0.0 | 0.00 | 0.14 | 0.00 | 80 | 1009.3 |
| 20260509025005 | 78 | 57 | 11.3 | 0.0 | 0.00 | 0.14 | 0.00 | 79 | 1008.9 |
| 20260509024505 | 78 | 46 | 11.3 | 0.0 | 0.00 | 0.14 | 0.00 | 79 | 1008.9 |
| 20260509024005 | 78 | 67 | 7.8 | 0.0 | 0.00 | 0.14 | 0.00 | 79 | 1008.9 |
| 20260509023505 | 78 | 92 | 7.8 | 0.0 | 0.00 | 0.14 | 0.00 | 79 | 1008.9 |
| 20260509023005 | 78 | 62 | 0.0 | 0.0 | 0.00 | 0.14 | 0.00 | 79 | 1008.9 |
| 20260509022505 | 78 | 74 | 3.5 | 0.0 | 0.00 | 0.14 | 0.00 | 79 | 1008.9 |
| 20260509022005 | 78 | 96 | 7.8 | 0.0 | 0.00 | 0.14 | 0.00 | 79 | 1008.9 |
| 20260509021505 | 78 | 79 | 0.0 | 0.0 | 0.00 | 0.14 | 0.00 | 79 | 1008.6 |
| 20260509021005 | 79 | 84 | 0.0 | 0.0 | 0.00 | 0.14 | 0.00 | 79 | 1008.6 |
| 20260509020712 | 79 | 63 | 15.6 | 0.0 | 0.00 | 0.14 | 0.00 | 78 | 1008.6 |
| 20260509020005 | 79 | 59 | 7.8 | 0.0 | 0.00 | 0.14 | 0.00 | 79 | 1008.6 |
| 20260509015712 | 79 | 72 | 3.5 | 0.0 | 0.00 | 0.14 | 0.00 | 79 | 1008.6 |
| 20260509015005 | 79 | 93 | 3.5 | 0.0 | 0.00 | 0.14 | 0.00 | 79 | 1008.2 |
| 20260509014505 | 79 | 59 | 7.8 | 0.0 | 0.00 | 0.14 | 0.00 | 79 | 1008.2 |
| 20260509014005 | 79 | 67 | 7.8 | 0.0 | 0.00 | 0.14 | 0.00 | 79 | 1007.9 |
| 20260509013505 | 79 | 81 | 11.3 | 0.0 | 0.00 | 0.14 | 0.00 | 79 | 1007.9 |
| 20260509013005 | 79 | 92 | 11.3 | 0.0 | 0.00 | 0.14 | 0.00 | 78 | 1007.9 |
| 20260509012505 | 80 | 34 | 3.5 | 0.0 | 0.00 | 0.14 | 0.00 | 78 | 1007.9 |
| 20260509012005 | 80 | 63 | 15.6 | 0.0 | 0.00 | 0.14 | 0.00 | 78 | 1007.6 |
| 20260509011505 | 80 | 78 | 3.5 | 0.0 | 0.00 | 0.14 | 0.00 | 78 | 1007.2 |
| 20260509011005 | 80 | 53 | 3.5 | 0.0 | 0.00 | 0.14 | 0.00 | 77 | 1007.2 |
| 20260509010505 | 80 | 9 | 3.5 | 0.0 | 0.00 | 0.14 | 0.00 | 77 | 1007.2 |
| 20260509010213 | 80 | 104 | 20.0 | 0.0 | 0.00 | 0.14 | 0.00 | 77 | 1006.9 |
| 20260509005505 | 80 | 47 | 3.5 | 0.0 | 0.00 | 0.14 | 0.00 | 77 | 1006.9 |
| 20260509005005 | 80 | 60 | 7.8 | 0.0 | 0.00 | 0.14 | 0.00 | 76 | 1007.2 |
| 20260509004505 | 80 | 56 | 0.0 | 0.0 | 0.00 | 0.14 | 0.00 | 76 | 1007.2 |
| 20260509004004 | 81 | 80 | 0.0 | 0.0 | 0.00 | 0.14 | 0.00 | 76 | 1007.2 |
| 20260509003505 | 81 | 30 | 0.0 | 0.0 | 0.00 | 0.14 | 0.00 | 76 | 1007.2 |
| 20260509003005 | 81 | 172 | 11.3 | 0.0 | 0.00 | 0.14 | 0.00 | 75 | 1007.2 |
| 20260509002712 | 81 | 131 | 7.8 | 0.0 | 0.00 | 0.14 | 0.00 | 75 | 1006.9 |
| 20260509002005 | 81 | 33 | 7.8 | 0.0 | 0.00 | 0.14 | 0.00 | 74 | 1006.9 |
| 20260509001712 | 81 | 89 | 7.8 | 0.0 | 0.00 | 0.14 | 0.00 | 74 | 1007.2 |
| 20260509001005 | 81 | 343 | 7.8 | 0.0 | 0.00 | 0.14 | 0.00 | 75 | 1007.2 |
| 20260509000712 | 81 | 93 | 7.8 | 0.0 | 0.00 | 0.14 | 0.00 | 75 | 1006.9 |
| 20260509000005 | 81 | 75 | 3.5 | 0.0 | 0.00 | 0.14 | 0.00 | 74 | 1007.2 |
| 20260508235505 | 81 | 96 | 20.0 | 0.0 | 0.00 | 0.14 | 0.00 | 74 | 1007.2 |
| 20260508235005 | 81 | 43 | 3.5 | 0.0 | 0.00 | 0.14 | 0.00 | 73 | 1007.2 |
| 20260508234505 | 82 | 60 | 7.8 | 0.0 | 0.00 | 0.14 | 0.00 | 73 | 1007.2 |
| 20260508234004 | 82 | 65 | 3.5 | 0.0 | 0.00 | 0.14 | 0.00 | 71 | 1007.2 |
| 20260508233712 | 83 | 106 | 11.3 | 0.0 | 0.00 | 0.14 | 0.00 | 70 | 1007.6 |
| 20260508233005 | 83 | 17 | 3.5 | 0.0 | 0.00 | 0.14 | 0.00 | 69 | 1007.2 |
| 20260508232505 | 83 | 79 | 0.0 | 0.0 | 0.00 | 0.14 | 0.00 | 69 | 1007.2 |
| 20260508232212 | 83 | 64 | 3.5 | 0.0 | 0.00 | 0.14 | 0.00 | 69 | 1007.2 |
| 20260508231505 | 82 | 342 | 3.5 | 0.0 | 0.00 | 0.14 | 0.00 | 71 | 1007.2 |
| 20260508231005 | 82 | 73 | 0.0 | 0.0 | 0.00 | 0.14 | 0.00 | 71 | 1007.6 |